Torna al catalogo

COSMOS 1275 DEB

AttivoPO
NORAD 39941·DEBRIS·🇷🇺 Russia

Lanciato Jun 4, 1981 da Plesetsk Cosmodrome

Loading…

Prossimi Passaggi (prossime 24 ore)

TLE

In scadenzaSource: Space-Track

Epoca: Sep 9, 2026, 18:36 UTC

1 39941U 81053NB  26252.77505507  .00000925  00000-0  74891-3 0  9994
2 39941  83.0137  80.2443 0097072 289.5565  69.5136 13.87092724618992

Traccia COSMOS 1275 DEB in tempo reale con AllMySat

Download on the App Store